Home > Weather > Sheboygan > Past weeks

Flag for USA Past Weather in Sheboygan, Wisconsin, USA — Yesterday and Last 2 Weeks

Now
58 °F

Clear.


Feels Like: 58 °F
Forecast: 54 / 68 °F
Wind: 5 mph from West

Location: Sheboygan County Memorial Airport

Current Time: May 31, 2016 at 2:59:48 AM

Latest Report: May 31, 2016 at 1:53 AM


Visibility: 9 mi

Pressure: 29.99 "Hg

Humidity: 90%

Dew Point: 55 °F

Location of SheboyganLocation

Past Weather in Sheboygan — Graph

°F

Sheboygan Temperature Yesterday

Maximum temperature yesterday: 80 °F (at 3:53 PM)
Minimum temperature yesterday: 56 °F (at 4:53 AM)
Average temperature yesterday: 68 °F

High & Low Weather Summary for the Past Weeks

 TemperatureHumidityPressure
High82 °F (May 24, 12:53 PM)97% (May 25, 3:53 AM)30.31 "Hg (May 25, 3:53 AM)
Low39 °F (May 18, 4:53 AM)23% (May 21, 3:53 PM)29.78 "Hg (May 26, 5:53 PM)
Average61 °F65%30.02 "Hg
* Reported May 16 12:53 AM — May 31 12:53 AM, Sheboygan, Weather by CustomWeather, © 2016

Note: Actual official high and low records may vary slightly from our data, if they occured in-between our weather recording intervals... More about our weather records

Advertising

Sheboygan Weather History for the Previous 24 Hours

Scroll right to see more
 ConditionsComfort  
Time TempWeatherWind HumidityBarometerVisibility
12:53 AM
Tue, May 31
59 °FClear.No wind90%29.99 "Hg10 mi
11:53 PM
Mon, May 30
60 °FClear.No wind83%29.99 "Hg10 mi
10:53 PM59 °FClear.No wind84%29.99 "Hg10 mi
9:53 PM61 °FClear.No wind81%30.00 "Hg10 mi
8:53 PM64 °FSunny.6 mph73%29.99 "Hg10 mi
7:53 PM70 °FSunny.6 mph61%29.98 "Hg10 mi
6:53 PM73 °FSunny.9 mph55%29.97 "Hg10 mi
5:53 PM74 °FSunny.8 mph56%29.97 "Hg10 mi
4:53 PM79 °FSunny.7 mph35%29.97 "Hg9 mi
3:53 PM80 °FSunny.8 mph35%29.96 "Hg10 mi
2:53 PM78 °FSunny.8 mph36%29.98 "Hg5 mi
1:53 PM79 °FSunny.10 mph36%30.00 "Hg10 mi
12:53 PM77 °FSunny.12 mph44%30.00 "Hg10 mi
11:53 AM77 °FSunny.13 mph52%30.01 "Hg10 mi
10:53 AM76 °FSunny.8 mph52%30.01 "Hg10 mi
9:53 AM73 °FPartly sunny.5 mph62%30.01 "Hg10 mi
8:53 AM71 °FPassing clouds.5 mph66%30.00 "Hg10 mi
7:53 AM68 °FBroken clouds.3 mph78%30.00 "Hg10 mi
6:53 AM63 °FSunny.6 mph87%30.00 "Hg10 mi
5:53 AM57 °FClear.5 mph96%29.98 "Hg10 mi
4:53 AM56 °FClear.3 mph93%29.96 "Hg10 mi
3:53 AM57 °FClear.3 mph93%29.96 "Hg10 mi
2:53 AM58 °FClear.6 mph90%29.96 "Hg10 mi
Weather by CustomWeather, © 2016

See weather overviewHow to use our weather pages